Time,TemperatureF,DewpointF,PressureIn,WindDirection,WindDirectionDegrees,WindSpeedMPH,WindSpeedGustMPH,Humidity,HourlyPrecipIn,Conditions,Clouds,dailyrainin,SoftwareType,DateUTC
2013-10-20 00:01:00,31.1,26.8,29.80,NW,322,0.0,0.0,84,0.00,,,0.01,Wunderground v.1.15,2013-10-20 05:01:00,
2013-10-20 00:06:00,31.7,27.4,29.80,NW,322,0.0,0.0,84,0.00,,,0.00,Wunderground v.1.15,2013-10-20 05:06:00,
2013-10-20 00:12:00,32.0,27.7,29.80,NW,322,0.0,0.0,84,0.00,,,0.00,Wunderground v.1.15,2013-10-20 05:12:00,
2013-10-20 00:17:00,32.3,28.0,29.80,NW,322,0.0,0.0,84,0.00,,,0.00,Wunderground v.1.15,2013-10-20 05:17:00,
2013-10-20 00:23:00,32.7,28.1,29.80,NW,322,0.0,0.0,83,0.00,,,0.00,Wunderground v.1.15,2013-10-20 05:23:00,
2013-10-20 00:29:00,33.0,28.4,29.79,NW,322,1.0,1.0,83,0.00,,,0.00,Wunderground v.1.15,2013-10-20 05:29:00,
2013-10-20 00:35:00,33.4,28.5,29.79,NW,322,2.0,3.0,82,0.00,,,0.00,Wunderground v.1.15,2013-10-20 05:35:00,
2013-10-20 00:41:00,33.6,28.4,29.79,NW,322,2.0,2.0,81,0.00,,,0.00,Wunderground v.1.15,2013-10-20 05:41:00,
2013-10-20 00:47:00,33.7,28.2,29.79,NW,322,2.0,3.0,80,0.00,,,0.00,Wunderground v.1.15,2013-10-20 05:47:00,
2013-10-20 00:53:00,33.8,28.3,29.78,NW,322,3.0,3.0,80,0.00,,,0.00,Wunderground v.1.15,2013-10-20 05:53:00,
2013-10-20 00:58:00,33.9,28.1,29.79,NW,322,1.0,3.0,79,0.00,,,0.00,Wunderground v.1.15,2013-10-20 05:58:00,
2013-10-20 01:04:00,34.1,28.3,29.78,NW,322,2.0,4.0,79,0.00,,,0.00,Wunderground v.1.15,2013-10-20 06:04:00,
2013-10-20 01:09:00,34.2,28.1,29.78,NW,322,5.0,5.0,78,0.00,,,0.00,Wunderground v.1.15,2013-10-20 06:09:00,
2013-10-20 01:15:00,34.4,27.6,29.78,NW,321,2.0,5.0,76,0.00,,,0.00,Wunderground v.1.15,2013-10-20 06:15:00,
2013-10-20 01:20:00,34.4,27.6,29.78,NW,321,1.0,2.0,76,0.00,,,0.00,Wunderground v.1.15,2013-10-20 06:20:00,
2013-10-20 01:26:00,34.6,27.5,29.78,NW,321,0.0,3.0,75,0.00,,,0.00,Wunderground v.1.15,2013-10-20 06:26:00,
2013-10-20 01:32:00,34.9,27.5,29.78,NW,321,1.0,4.0,74,0.00,,,0.00,Wunderground v.1.15,2013-10-20 06:32:00,
2013-10-20 01:37:00,35.0,27.5,29.78,NW,321,1.0,4.0,74,0.00,,,0.00,Wunderground v.1.15,2013-10-20 06:37:00,
2013-10-20 01:43:00,35.3,27.5,29.78,NW,319,0.0,3.0,73,0.00,,,0.00,Wunderground v.1.15,2013-10-20 06:43:00,
2013-10-20 01:49:00,35.4,27.6,29.78,NW,313,3.0,3.0,73,0.00,,,0.00,Wunderground v.1.15,2013-10-20 06:49:00,
2013-10-20 01:54:00,35.5,27.7,29.78,SW,232,4.0,4.0,73,0.00,,,0.00,Wunderground v.1.15,2013-10-20 06:54:00,
2013-10-20 02:00:00,35.5,28.0,29.77,SW,227,2.0,3.0,74,0.00,,,0.00,Wunderground v.1.15,2013-10-20 07:00:00,
2013-10-20 02:06:00,35.3,27.8,29.77,SW,227,2.0,4.0,74,0.00,,,0.00,Wunderground v.1.15,2013-10-20 07:06:00,
2013-10-20 02:11:00,35.2,28.1,29.77,SW,227,1.0,3.0,75,0.00,,,0.00,Wunderground v.1.15,2013-10-20 07:11:00,
2013-10-20 02:16:00,35.2,27.7,29.77,SW,218,5.0,6.0,74,0.00,,,0.00,Wunderground v.1.15,2013-10-20 07:16:00,
2013-10-20 02:21:00,35.2,28.1,29.76,SW,217,0.0,4.0,75,0.00,,,0.00,Wunderground v.1.15,2013-10-20 07:21:00,
2013-10-20 02:26:00,35.3,27.8,29.76,SW,215,1.0,5.0,74,0.00,,,0.00,Wunderground v.1.15,2013-10-20 07:26:00,
2013-10-20 02:31:00,35.3,27.8,29.76,SSW,209,5.0,6.0,74,0.00,,,0.00,Wunderground v.1.15,2013-10-20 07:31:00,
2013-10-20 02:36:00,35.2,27.7,29.76,SSW,200,2.0,7.0,74,0.00,,,0.00,Wunderground v.1.15,2013-10-20 07:36:00,
2013-10-20 02:41:00,35.1,28.0,29.76,SSW,200,2.0,3.0,75,0.00,,,0.00,Wunderground v.1.15,2013-10-20 07:41:00,
2013-10-20 02:46:00,35.0,27.9,29.75,SSW,200,0.0,5.0,75,0.00,,,0.00,Wunderground v.1.15,2013-10-20 07:46:00,
2013-10-20 02:51:00,35.0,27.9,29.75,SSW,200,4.0,6.0,75,0.00,,,0.00,Wunderground v.1.15,2013-10-20 07:51:00,
2013-10-20 02:56:00,35.0,27.9,29.75,SSW,199,2.0,6.0,75,0.00,,,0.00,Wunderground v.1.15,2013-10-20 07:56:00,
2013-10-20 03:01:00,35.1,27.6,29.74,South,180,5.0,7.0,74,0.00,,,0.00,Wunderground v.1.15,2013-10-20 08:01:00,
2013-10-20 03:06:00,35.2,27.7,29.74,South,176,2.0,8.0,74,0.00,,,0.00,Wunderground v.1.15,2013-10-20 08:06:00,
2013-10-20 03:11:00,35.2,27.7,29.73,South,176,3.0,6.0,74,0.00,,,0.00,Wunderground v.1.15,2013-10-20 08:11:00,
2013-10-20 03:16:00,35.2,27.7,29.73,South,176,3.0,7.0,74,0.00,,,0.00,Wunderground v.1.15,2013-10-20 08:16:00,
2013-10-20 03:21:00,35.4,27.6,29.72,SSE,164,8.0,10.0,73,0.00,,,0.00,Wunderground v.1.15,2013-10-20 08:21:00,
2013-10-20 03:26:00,35.4,27.6,29.72,SSE,164,7.0,10.0,73,0.00,,,0.00,Wunderground v.1.15,2013-10-20 08:26:00,
2013-10-20 03:31:00,35.4,27.6,29.72,SSE,163,5.0,9.0,73,0.00,,,0.00,Wunderground v.1.15,2013-10-20 08:31:00,
2013-10-20 03:36:00,35.4,27.6,29.72,SSE,163,2.0,9.0,73,0.00,,,0.00,Wunderground v.1.15,2013-10-20 08:36:00,
2013-10-20 03:41:00,35.6,27.5,29.72,SSE,163,2.0,7.0,72,0.00,,,0.00,Wunderground v.1.15,2013-10-20 08:41:00,
2013-10-20 03:46:00,35.7,27.6,29.72,SSE,163,2.0,7.0,72,0.00,,,0.00,Wunderground v.1.15,2013-10-20 08:46:00,
2013-10-20 03:51:00,35.7,27.6,29.72,SSE,163,3.0,5.0,72,0.00,,,0.00,Wunderground v.1.15,2013-10-20 08:51:00,
2013-10-20 03:56:00,35.8,27.7,29.71,SSE,163,4.0,5.0,72,0.00,,,0.00,Wunderground v.1.15,2013-10-20 08:56:00,
2013-10-20 04:01:00,35.8,27.7,29.70,SSE,162,5.0,6.0,72,0.00,,,0.00,Wunderground v.1.15,2013-10-20 09:01:00,
2013-10-20 04:06:00,35.9,27.7,29.70,SSE,161,4.0,7.0,72,0.00,,,0.00,Wunderground v.1.15,2013-10-20 09:06:00,
2013-10-20 04:11:00,36.0,27.5,29.70,SSE,162,5.0,7.0,71,0.00,,,0.00,Wunderground v.1.15,2013-10-20 09:11:00,
2013-10-20 04:16:00,36.0,27.5,29.70,SSE,161,3.0,7.0,71,0.00,,,0.00,Wunderground v.1.15,2013-10-20 09:16:00,
2013-10-20 04:22:00,36.0,27.5,29.70,SSE,161,7.0,7.0,71,0.00,,,0.00,Wunderground v.1.15,2013-10-20 09:22:00,
2013-10-20 04:27:00,36.0,27.5,29.70,SSE,162,5.0,7.0,71,0.00,,,0.00,Wunderground v.1.15,2013-10-20 09:27:00,
2013-10-20 04:32:00,36.1,27.6,29.70,SSE,162,2.0,7.0,71,0.00,,,0.00,Wunderground v.1.15,2013-10-20 09:32:00,
2013-10-20 04:37:00,36.2,27.7,29.70,SSE,161,2.0,7.0,71,0.00,,,0.00,Wunderground v.1.15,2013-10-20 09:37:00,
2013-10-20 04:42:00,36.2,27.7,29.69,SSE,161,2.0,4.0,71,0.00,,,0.00,Wunderground v.1.15,2013-10-20 09:42:00,
2013-10-20 04:47:00,36.3,27.8,29.69,SSE,161,5.0,5.0,71,0.00,,,0.00,Wunderground v.1.15,2013-10-20 09:47:00,
2013-10-20 04:52:00,36.3,27.8,29.69,SSE,161,1.0,4.0,71,0.00,,,0.00,Wunderground v.1.15,2013-10-20 09:52:00,
2013-10-20 04:57:00,36.4,27.9,29.69,SSE,161,2.0,6.0,71,0.00,,,0.00,Wunderground v.1.15,2013-10-20 09:57:00,
2013-10-20 05:02:00,36.4,27.9,29.69,SSE,161,2.0,5.0,71,0.00,,,0.00,Wunderground v.1.15,2013-10-20 10:02:00,
2013-10-20 05:07:00,36.5,28.0,29.68,SSE,161,1.0,5.0,71,0.00,,,0.00,Wunderground v.1.15,2013-10-20 10:07:00,
2013-10-20 05:12:00,36.5,28.0,29.68,SSE,161,1.0,4.0,71,0.00,,,0.00,Wunderground v.1.15,2013-10-20 10:12:00,
2013-10-20 05:17:00,36.6,27.7,29.68,SSE,161,3.0,4.0,70,0.00,,,0.00,Wunderground v.1.15,2013-10-20 10:17:00,
2013-10-20 05:22:00,36.6,28.1,29.68,SSE,161,5.0,5.0,71,0.00,,,0.00,Wunderground v.1.15,2013-10-20 10:22:00,
2013-10-20 05:27:00,36.6,28.1,29.68,SSE,161,2.0,5.0,71,0.00,,,0.00,Wunderground v.1.15,2013-10-20 10:27:00,
2013-10-20 05:32:00,36.7,28.2,29.67,SSE,161,3.0,5.0,71,0.00,,,0.00,Wunderground v.1.15,2013-10-20 10:32:00,
2013-10-20 05:37:00,36.7,28.2,29.67,SSE,161,2.0,6.0,71,0.00,,,0.00,Wunderground v.1.15,2013-10-20 10:37:00,
2013-10-20 05:42:00,36.8,27.9,29.67,SSE,160,3.0,6.0,70,0.00,,,0.00,Wunderground v.1.15,2013-10-20 10:42:00,
2013-10-20 05:47:00,36.9,28.0,29.67,SSE,159,4.0,7.0,70,0.00,,,0.00,Wunderground v.1.15,2013-10-20 10:47:00,
2013-10-20 05:52:00,36.9,28.0,29.66,SSE,159,4.0,6.0,70,0.00,,,0.00,Wunderground v.1.15,2013-10-20 10:52:00,
2013-10-20 05:57:00,36.9,28.0,29.66,SSE,159,5.0,6.0,70,0.00,,,0.00,Wunderground v.1.15,2013-10-20 10:57:00,
2013-10-20 06:02:00,36.9,28.4,29.66,SSE,159,3.0,7.0,71,0.00,,,0.00,Wunderground v.1.15,2013-10-20 11:02:00,
2013-10-20 06:07:00,37.0,28.1,29.66,SSE,159,3.0,8.0,70,0.00,,,0.00,Wunderground v.1.15,2013-10-20 11:07:00,
2013-10-20 06:12:00,37.1,28.2,29.66,SSE,159,3.0,5.0,70,0.00,,,0.00,Wunderground v.1.15,2013-10-20 11:12:00,
2013-10-20 06:17:00,37.1,28.2,29.66,SSE,159,0.0,7.0,70,0.00,,,0.00,Wunderground v.1.15,2013-10-20 11:17:00,
2013-10-20 06:23:00,37.1,28.6,29.66,SSE,159,3.0,3.0,71,0.00,,,0.00,Wunderground v.1.15,2013-10-20 11:23:00,
2013-10-20 06:28:00,37.1,28.6,29.65,SSE,159,2.0,4.0,71,0.00,,,0.00,Wunderground v.1.15,2013-10-20 11:28:00,
2013-10-20 06:33:00,37.2,28.7,29.66,SSE,159,2.0,4.0,71,0.00,,,0.00,Wunderground v.1.15,2013-10-20 11:33:00,
2013-10-20 06:38:00,37.3,28.8,29.66,SSE,159,2.0,7.0,71,0.00,,,0.00,Wunderground v.1.15,2013-10-20 11:38:00,
2013-10-20 06:43:00,37.5,28.9,29.65,SSE,159,5.0,8.0,71,0.00,,,0.00,Wunderground v.1.15,2013-10-20 11:43:00,
2013-10-20 06:48:00,37.5,28.9,29.65,SSE,159,6.0,8.0,71,0.00,,,0.00,Wunderground v.1.15,2013-10-20 11:48:00,
2013-10-20 06:53:00,37.5,28.9,29.65,SSE,159,0.0,3.0,71,0.00,,,0.00,Wunderground v.1.15,2013-10-20 11:53:00,
2013-10-20 06:58:00,37.6,29.0,29.65,SSE,159,2.0,5.0,71,0.00,,,0.00,Wunderground v.1.15,2013-10-20 11:58:00,
2013-10-20 07:03:00,37.6,29.0,29.65,SSE,159,3.0,6.0,71,0.00,,,0.00,Wunderground v.1.15,2013-10-20 12:03:00,
2013-10-20 07:08:00,37.7,29.1,29.65,SSE,159,3.0,7.0,71,0.00,,,0.00,Wunderground v.1.15,2013-10-20 12:08:00,
2013-10-20 07:13:00,37.6,29.4,29.65,SSE,159,4.0,8.0,72,0.00,,,0.00,Wunderground v.1.15,2013-10-20 12:13:00,
2013-10-20 07:18:00,37.5,29.3,29.65,SSE,160,5.0,9.0,72,0.00,,,0.00,Wunderground v.1.15,2013-10-20 12:18:00,
2013-10-20 07:23:00,37.4,29.2,29.65,SSE,159,2.0,9.0,72,0.00,,,0.00,Wunderground v.1.15,2013-10-20 12:23:00,
2013-10-20 07:28:00,37.2,29.0,29.65,SSE,159,3.0,9.0,72,0.00,,,0.00,Wunderground v.1.15,2013-10-20 12:28:00,
2013-10-20 07:33:00,37.1,29.2,29.65,SSE,159,0.0,4.0,73,0.00,,,0.00,Wunderground v.1.15,2013-10-20 12:33:00,
2013-10-20 07:38:00,37.1,29.2,29.64,SSE,159,4.0,7.0,73,0.00,,,0.00,Wunderground v.1.15,2013-10-20 12:38:00,
2013-10-20 07:43:00,37.3,29.4,29.65,SSE,159,4.0,5.0,73,0.00,,,0.00,Wunderground v.1.15,2013-10-20 12:43:00,
2013-10-20 07:48:00,37.4,29.5,29.65,SSE,159,1.0,7.0,73,0.00,,,0.00,Wunderground v.1.15,2013-10-20 12:48:00,
2013-10-20 07:53:00,37.4,29.5,29.64,SSE,159,3.0,6.0,73,0.00,,,0.00,Wunderground v.1.15,2013-10-20 12:53:00,
2013-10-20 07:58:00,37.4,29.9,29.64,SSE,159,4.0,6.0,74,0.00,,,0.00,Wunderground v.1.15,2013-10-20 12:58:00,
2013-10-20 08:03:00,37.6,30.1,29.64,SSE,161,4.0,7.0,74,0.00,,,0.00,Wunderground v.1.15,2013-10-20 13:03:00,
2013-10-20 08:08:00,37.7,30.2,29.64,SSE,161,2.0,7.0,74,0.00,,,0.00,Wunderground v.1.15,2013-10-20 13:08:00,
2013-10-20 08:13:00,37.9,30.4,29.65,SSE,161,2.0,4.0,74,0.00,,,0.00,Wunderground v.1.15,2013-10-20 13:13:00,
2013-10-20 08:18:00,38.0,30.4,29.65,SSE,161,0.0,4.0,74,0.00,,,0.00,Wunderground v.1.15,2013-10-20 13:18:00,
2013-10-20 08:23:00,38.1,30.9,29.64,SSE,160,3.0,5.0,75,0.00,,,0.00,Wunderground v.1.15,2013-10-20 13:23:00,
2013-10-20 08:28:00,38.1,30.9,29.64,SSE,161,1.0,5.0,75,0.00,,,0.00,Wunderground v.1.15,2013-10-20 13:28:00,
2013-10-20 08:33:00,38.2,31.3,29.64,SSE,161,3.0,4.0,76,0.00,,,0.00,Wunderground v.1.15,2013-10-20 13:33:00,
2013-10-20 08:38:00,38.3,31.4,29.65,SSE,161,1.0,4.0,76,0.00,,,0.00,Wunderground v.1.15,2013-10-20 13:38:00,
2013-10-20 08:43:00,38.6,31.7,29.65,SSE,160,1.0,4.0,76,0.00,,,0.00,Wunderground v.1.15,2013-10-20 13:43:00,
2013-10-20 08:48:00,38.8,31.9,29.65,SSE,161,2.0,4.0,76,0.00,,,0.00,Wunderground v.1.15,2013-10-20 13:48:00,
2013-10-20 08:53:00,38.9,32.0,29.64,SSE,161,2.0,4.0,76,0.00,,,0.00,Wunderground v.1.15,2013-10-20 13:53:00,
2013-10-20 08:58:00,39.1,32.2,29.64,SSE,161,6.0,8.0,76,0.00,,,0.00,Wunderground v.1.15,2013-10-20 13:58:00,
2013-10-20 09:03:00,39.2,32.3,29.64,SSE,162,2.0,8.0,76,0.00,,,0.00,Wunderground v.1.15,2013-10-20 14:03:00,
2013-10-20 09:08:00,39.5,32.2,29.65,SSE,164,6.0,8.0,75,0.00,,,0.00,Wunderground v.1.15,2013-10-20 14:08:00,
2013-10-20 09:13:00,39.6,32.3,29.65,SSE,164,1.0,6.0,75,0.00,,,0.00,Wunderground v.1.15,2013-10-20 14:13:00,
2013-10-20 09:18:00,39.6,32.3,29.64,South,173,3.0,11.0,75,0.00,,,0.00,Wunderground v.1.15,2013-10-20 14:18:00,
2013-10-20 09:23:00,39.3,32.7,29.63,South,182,8.0,10.0,77,0.00,,,0.00,Wunderground v.1.15,2013-10-20 14:23:00,
2013-10-20 09:28:00,39.3,33.0,29.65,SSW,198,6.0,10.0,78,0.00,,,0.00,Wunderground v.1.15,2013-10-20 14:28:00,
2013-10-20 09:33:00,39.6,33.6,29.65,SSW,198,2.0,9.0,79,0.00,,,0.00,Wunderground v.1.15,2013-10-20 14:33:00,
2013-10-20 09:38:00,40.0,34.0,29.65,SSW,203,7.0,9.0,79,0.00,,,0.00,Wunderground v.1.15,2013-10-20 14:38:00,
2013-10-20 09:43:00,40.6,34.3,29.65,SW,215,7.0,8.0,78,0.00,,,0.00,Wunderground v.1.15,2013-10-20 14:43:00,
2013-10-20 09:48:00,41.1,34.4,29.65,SW,217,7.0,10.0,77,0.00,,,0.00,Wunderground v.1.15,2013-10-20 14:48:00,
2013-10-20 09:53:00,41.5,34.8,29.65,SW,217,2.0,8.0,77,0.00,,,0.00,Wunderground v.1.15,2013-10-20 14:53:00,
2013-10-20 09:58:00,42.0,35.0,29.65,SW,219,7.0,9.0,76,0.00,,,0.00,Wunderground v.1.15,2013-10-20 14:58:00,
2013-10-20 10:03:00,42.2,34.8,29.65,SW,221,6.0,10.0,75,0.00,,,0.00,Wunderground v.1.15,2013-10-20 15:03:00,
2013-10-20 10:08:00,42.6,35.2,29.65,SW,221,5.0,10.0,75,0.00,,,0.00,Wunderground v.1.15,2013-10-20 15:08:00,
2013-10-20 10:13:00,43.1,35.7,29.65,SW,227,5.0,8.0,75,0.00,,,0.00,Wunderground v.1.15,2013-10-20 15:13:00,
2013-10-20 10:18:00,43.6,36.2,29.65,WSW,244,5.0,10.0,75,0.00,,,0.00,Wunderground v.1.15,2013-10-20 15:18:00,
2013-10-20 10:23:00,44.4,37.0,29.65,WSW,250,6.0,11.0,75,0.00,,,0.00,Wunderground v.1.15,2013-10-20 15:23:00,
2013-10-20 10:28:00,45.1,37.3,29.65,WSW,256,9.0,13.0,74,0.00,,,0.00,Wunderground v.1.15,2013-10-20 15:28:00,
2013-10-20 10:33:00,45.8,37.6,29.65,West,263,13.0,15.0,73,0.00,,,0.00,Wunderground v.1.15,2013-10-20 15:33:00,
2013-10-20 10:38:00,46.4,37.9,29.65,West,266,9.0,16.0,72,0.00,,,0.00,Wunderground v.1.15,2013-10-20 15:38:00,
2013-10-20 10:43:00,47.3,38.4,29.65,WNW,283,8.0,13.0,71,0.00,,,0.00,Wunderground v.1.15,2013-10-20 15:43:00,
2013-10-20 10:48:00,47.7,38.4,29.65,West,273,13.0,14.0,70,0.00,,,0.00,Wunderground v.1.15,2013-10-20 15:48:00,
2013-10-20 10:53:00,48.2,38.9,29.65,West,268,14.0,16.0,70,0.00,,,0.00,Wunderground v.1.15,2013-10-20 15:53:00,
2013-10-20 10:58:00,48.6,38.9,29.65,WNW,289,14.0,17.0,69,0.00,,,0.00,Wunderground v.1.15,2013-10-20 15:58:00,
2013-10-20 11:03:00,49.2,39.5,29.65,West,273,12.0,19.0,69,0.00,,,0.00,Wunderground v.1.15,2013-10-20 16:03:00,
2013-10-20 11:08:00,49.7,39.6,29.65,West,273,8.0,20.0,68,0.00,,,0.00,Wunderground v.1.15,2013-10-20 16:08:00,
2013-10-20 11:13:00,50.1,39.6,29.65,West,276,10.0,17.0,67,0.00,,,0.00,Wunderground v.1.15,2013-10-20 16:13:00,
2013-10-20 11:18:00,51.0,40.0,29.65,WNW,283,9.0,17.0,66,0.00,,,0.00,Wunderground v.1.15,2013-10-20 16:18:00,
2013-10-20 11:23:00,51.3,39.9,29.65,West,264,14.0,16.0,65,0.00,,,0.00,Wunderground v.1.15,2013-10-20 16:23:00,
2013-10-20 11:28:00,51.3,39.9,29.65,WNW,286,11.0,19.0,65,0.00,,,0.00,Wunderground v.1.15,2013-10-20 16:28:00,
2013-10-20 11:33:00,51.0,39.6,29.65,WNW,298,14.0,19.0,65,0.00,,,0.00,Wunderground v.1.15,2013-10-20 16:33:00,
2013-10-20 11:36:00,51.1,39.7,29.65,West,276,13.0,19.0,65,0.00,,,0.00,Wunderground v.1.15,2013-10-20 16:36:00,
2013-10-20 11:41:00,51.7,39.9,29.65,West,273,10.0,15.0,64,0.00,,,0.00,Wunderground v.1.15,2013-10-20 16:41:00,
2013-10-20 11:46:00,51.7,40.3,29.65,West,279,10.0,20.0,65,0.00,,,0.00,Wunderground v.1.15,2013-10-20 16:46:00,
2013-10-20 11:51:00,52.7,40.0,29.65,West,264,14.0,17.0,62,0.00,,,0.00,Wunderground v.1.15,2013-10-20 16:51:00,
2013-10-20 11:56:00,53.4,41.1,29.65,WNW,284,14.0,17.0,63,0.00,,,0.00,Wunderground v.1.15,2013-10-20 16:56:00,
2013-10-20 12:01:00,53.4,40.3,29.65,WNW,282,9.0,18.0,61,0.00,,,0.00,Wunderground v.1.15,2013-10-20 17:01:00,
2013-10-20 12:06:00,54.2,40.6,29.65,West,281,18.0,20.0,60,0.00,,,0.00,Wunderground v.1.15,2013-10-20 17:06:00,
2013-10-20 12:11:00,55.3,40.8,29.65,West,273,20.0,29.0,58,0.00,,,0.00,Wunderground v.1.15,2013-10-20 17:11:00,
2013-10-20 12:16:00,54.3,40.3,29.65,West,274,12.0,29.0,59,0.00,,,0.00,Wunderground v.1.15,2013-10-20 17:16:00,
2013-10-20 12:21:00,54.6,40.6,29.65,WNW,286,15.0,18.0,59,0.00,,,0.00,Wunderground v.1.15,2013-10-20 17:21:00,
2013-10-20 12:26:00,54.5,39.6,29.65,WNW,290,18.0,28.0,57,0.00,,,0.00,Wunderground v.1.15,2013-10-20 17:26:00,
2013-10-20 12:31:00,54.9,39.9,29.65,West,279,13.0,23.0,57,0.00,,,0.00,Wunderground v.1.15,2013-10-20 17:31:00,
2013-10-20 12:36:00,55.0,40.0,29.65,West,272,16.0,23.0,57,0.00,,,0.00,Wunderground v.1.15,2013-10-20 17:36:00,
2013-10-20 12:41:00,54.0,39.5,29.65,West,266,16.0,25.0,58,0.00,,,0.00,Wunderground v.1.15,2013-10-20 17:41:00,
2013-10-20 12:46:00,53.4,39.9,29.65,WNW,285,17.0,25.0,60,0.00,,,0.00,Wunderground v.1.15,2013-10-20 17:46:00,
2013-10-20 12:51:00,53.3,40.2,29.65,WNW,289,21.0,26.0,61,0.00,,,0.00,Wunderground v.1.15,2013-10-20 17:51:00,
2013-10-20 12:56:00,53.0,39.5,29.66,NW,304,19.0,28.0,60,0.00,,,0.00,Wunderground v.1.15,2013-10-20 17:56:00,
2013-10-20 13:01:00,52.9,39.8,29.65,West,281,15.0,22.0,61,0.00,,,0.00,Wunderground v.1.15,2013-10-20 18:01:00,
2013-10-20 13:06:00,54.4,40.4,29.65,West,276,16.0,23.0,59,0.00,,,0.00,Wunderground v.1.15,2013-10-20 18:06:00,
2013-10-20 13:11:00,54.9,40.4,29.65,WNW,294,23.0,25.0,58,0.00,,,0.00,Wunderground v.1.15,2013-10-20 18:11:00,
2013-10-20 13:16:00,54.8,40.3,29.65,NW,304,23.0,25.0,58,0.00,,,0.00,Wunderground v.1.15,2013-10-20 18:16:00,
2013-10-20 13:21:00,55.9,40.0,29.65,WNW,284,10.0,20.0,55,0.00,,,0.00,Wunderground v.1.15,2013-10-20 18:21:00,
2013-10-20 13:26:00,53.9,38.6,29.65,West,276,18.0,25.0,56,0.00,,,0.00,Wunderground v.1.15,2013-10-20 18:26:00,
2013-10-20 13:31:00,53.4,39.0,29.65,WNW,293,22.0,22.0,58,0.00,,,0.00,Wunderground v.1.15,2013-10-20 18:31:00,
2013-10-20 13:37:00,53.2,38.8,29.65,West,279,13.0,24.0,58,0.00,,,0.00,Wunderground v.1.15,2013-10-20 18:37:00,
2013-10-20 13:42:00,53.3,38.9,29.65,West,281,22.0,23.0,58,0.00,,,0.00,Wunderground v.1.15,2013-10-20 18:42:00,
2013-10-20 13:47:00,54.4,39.9,29.65,West,281,27.0,30.0,58,0.00,,,0.00,Wunderground v.1.15,2013-10-20 18:47:00,
2013-10-20 13:52:00,54.2,38.8,29.65,WNW,290,22.0,29.0,56,0.00,,,0.00,Wunderground v.1.15,2013-10-20 18:52:00,
2013-10-20 13:57:00,54.0,39.5,29.66,WNW,286,15.0,29.0,58,0.00,,,0.00,Wunderground v.1.15,2013-10-20 18:57:00,
2013-10-20 14:02:00,53.8,39.4,29.66,WNW,290,15.0,24.0,58,0.00,,,0.00,Wunderground v.1.15,2013-10-20 19:02:00,
2013-10-20 14:07:00,53.1,39.1,29.66,West,275,24.0,30.0,59,0.00,,,0.00,Wunderground v.1.15,2013-10-20 19:07:00,
2013-10-20 14:12:00,52.6,39.5,29.66,WNW,296,19.0,25.0,61,0.00,,,0.00,Wunderground v.1.15,2013-10-20 19:12:00,
2013-10-20 14:17:00,52.7,38.8,29.66,WNW,294,20.0,25.0,59,0.00,,,0.00,Wunderground v.1.15,2013-10-20 19:17:00,
2013-10-20 14:22:00,52.1,38.6,29.66,West,281,19.0,23.0,60,0.00,,,0.00,Wunderground v.1.15,2013-10-20 19:22:00,
2013-10-20 14:27:00,51.5,38.5,29.67,WNW,283,22.0,30.0,61,0.00,,,0.00,Wunderground v.1.15,2013-10-20 19:27:00,
2013-10-20 14:32:00,51.8,38.8,29.67,WNW,286,24.0,24.0,61,0.00,,,0.00,Wunderground v.1.15,2013-10-20 19:32:00,
2013-10-20 14:37:00,51.6,38.6,29.67,WNW,294,18.0,28.0,61,0.00,,,0.00,Wunderground v.1.15,2013-10-20 19:37:00,
2013-10-20 14:42:00,51.4,39.2,29.67,West,276,21.0,21.0,63,0.00,,,0.00,Wunderground v.1.15,2013-10-20 19:42:00,
2013-10-20 14:47:00,51.4,39.2,29.67,West,281,23.0,26.0,63,0.00,,,0.00,Wunderground v.1.15,2013-10-20 19:47:00,
2013-10-20 14:52:00,51.2,39.8,29.67,WNW,296,19.0,26.0,65,0.00,,,0.00,Wunderground v.1.15,2013-10-20 19:52:00,
2013-10-20 14:57:00,51.4,39.6,29.68,WNW,290,30.0,30.0,64,0.00,,,0.00,Wunderground v.1.15,2013-10-20 19:57:00,
2013-10-20 15:03:00,51.1,39.3,29.68,WNW,287,15.0,27.0,64,0.00,,,0.00,Wunderground v.1.15,2013-10-20 20:03:00,
2013-10-20 15:07:00,50.9,39.5,29.68,West,279,19.0,27.0,65,0.00,,,0.00,Wunderground v.1.15,2013-10-20 20:07:00,
2013-10-20 15:13:00,50.6,39.3,29.68,WNW,293,20.0,28.0,65,0.00,,,0.00,Wunderground v.1.15,2013-10-20 20:13:00,
2013-10-20 15:18:00,50.8,39.5,29.68,WNW,283,22.0,28.0,65,0.00,,,0.00,Wunderground v.1.15,2013-10-20 20:18:00,
2013-10-20 15:23:00,50.4,39.5,29.69,West,273,21.0,28.0,66,0.00,,,0.00,Wunderground v.1.15,2013-10-20 20:23:00,
2013-10-20 15:28:00,49.9,39.4,29.69,West,279,12.0,28.0,67,0.00,,,0.00,Wunderground v.1.15,2013-10-20 20:28:00,
2013-10-20 15:33:00,49.8,39.3,29.69,WNW,284,14.0,24.0,67,0.00,,,0.00,Wunderground v.1.15,2013-10-20 20:33:00,
2013-10-20 15:38:00,49.5,39.4,29.69,West,279,17.0,24.0,68,0.00,,,0.00,Wunderground v.1.15,2013-10-20 20:38:00,
2013-10-20 15:43:00,49.2,39.5,29.69,WNW,289,19.0,22.0,69,0.00,,,0.00,Wunderground v.1.15,2013-10-20 20:43:00,
2013-10-20 15:48:00,49.1,39.7,29.69,WNW,286,11.0,22.0,70,0.00,,,0.00,Wunderground v.1.15,2013-10-20 20:48:00,
2013-10-20 15:53:00,49.0,39.6,29.69,West,265,12.0,23.0,70,0.00,,,0.00,Wunderground v.1.15,2013-10-20 20:53:00,
2013-10-20 15:58:00,49.0,40.0,29.70,West,277,12.0,23.0,71,0.00,,,0.00,Wunderground v.1.15,2013-10-20 20:58:00,
2013-10-20 16:03:00,48.6,40.0,29.70,WNW,299,15.0,26.0,72,0.00,,,0.00,Wunderground v.1.15,2013-10-20 21:03:00,
2013-10-20 16:08:00,48.1,39.9,29.71,WNW,300,10.0,26.0,73,0.00,,,0.00,Wunderground v.1.15,2013-10-20 21:08:00,
2013-10-20 16:13:00,47.3,40.5,29.71,WNW,299,17.0,20.0,77,0.00,,,0.00,Wunderground v.1.15,2013-10-20 21:13:00,
2013-10-20 16:18:00,46.6,40.4,29.71,WNW,302,18.0,22.0,79,0.00,,,0.00,Wunderground v.1.15,2013-10-20 21:18:00,
2013-10-20 16:23:00,46.3,40.5,29.72,WNW,292,12.0,20.0,80,0.00,,,0.00,Wunderground v.1.15,2013-10-20 21:23:00,
2013-10-20 16:28:00,46.6,40.8,29.72,NW,306,16.0,20.0,80,0.00,,,0.00,Wunderground v.1.15,2013-10-20 21:28:00,
2013-10-20 16:33:00,47.0,40.8,29.72,WNW,291,21.0,21.0,79,0.00,,,0.00,Wunderground v.1.15,2013-10-20 21:33:00,
2013-10-20 16:38:00,47.1,40.6,29.72,NW,307,18.0,21.0,78,0.00,,,0.00,Wunderground v.1.15,2013-10-20 21:38:00,
2013-10-20 16:43:00,47.2,40.0,29.72,WNW,300,22.0,22.0,76,0.00,,,0.00,Wunderground v.1.15,2013-10-20 21:43:00,
2013-10-20 16:48:00,47.2,39.7,29.72,WNW,298,14.0,22.0,75,0.00,,,0.00,Wunderground v.1.15,2013-10-20 21:48:00,
2013-10-20 16:53:00,47.3,39.8,29.72,NW,306,15.0,20.0,75,0.00,,,0.00,Wunderground v.1.15,2013-10-20 21:53:00,
2013-10-20 16:58:00,47.4,39.9,29.73,WNW,300,18.0,20.0,75,0.00,,,0.00,Wunderground v.1.15,2013-10-20 21:58:00,
2013-10-20 17:03:00,47.4,39.5,29.73,WNW,295,12.0,20.0,74,0.00,,,0.00,Wunderground v.1.15,2013-10-20 22:03:00,
2013-10-20 17:08:00,47.3,39.4,29.73,NW,313,12.0,20.0,74,0.00,,,0.00,Wunderground v.1.15,2013-10-20 22:08:00,
2013-10-20 17:13:00,47.4,39.5,29.73,WNW,290,14.0,18.0,74,0.00,,,0.00,Wunderground v.1.15,2013-10-20 22:13:00,
2013-10-20 17:18:00,47.3,38.7,29.74,WNW,294,12.0,20.0,72,0.00,,,0.00,Wunderground v.1.15,2013-10-20 22:18:00,
2013-10-20 17:23:00,47.2,38.6,29.74,WNW,294,12.0,21.0,72,0.00,,,0.00,Wunderground v.1.15,2013-10-20 22:23:00,
2013-10-20 17:28:00,46.5,38.3,29.75,NW,305,19.0,25.0,73,0.00,,,0.00,Wunderground v.1.15,2013-10-20 22:28:00,
2013-10-20 17:33:00,45.9,38.4,29.76,WNW,300,12.0,20.0,75,0.00,,,0.00,Wunderground v.1.15,2013-10-20 22:33:00,
2013-10-20 17:38:00,45.5,38.0,29.76,NW,319,14.0,21.0,75,0.00,,,0.00,Wunderground v.1.15,2013-10-20 22:38:00,
2013-10-20 17:43:00,45.0,37.6,29.77,NW,316,16.0,23.0,75,0.00,,,0.00,Wunderground v.1.15,2013-10-20 22:43:00,
2013-10-20 17:48:00,44.7,37.3,29.77,NW,311,17.0,23.0,75,0.00,,,0.00,Wunderground v.1.15,2013-10-20 22:48:00,
2013-10-20 17:53:00,44.4,37.3,29.77,NW,307,19.0,24.0,76,0.00,,,0.00,Wunderground v.1.15,2013-10-20 22:53:00,
2013-10-20 17:58:00,44.3,37.2,29.78,NW,317,17.0,24.0,76,0.00,,,0.00,Wunderground v.1.15,2013-10-20 22:58:00,
2013-10-20 18:03:00,44.2,36.8,29.78,NW,316,20.0,22.0,75,0.00,,,0.00,Wunderground v.1.15,2013-10-20 23:03:00,
2013-10-20 18:08:00,44.0,36.6,29.79,NW,318,13.0,23.0,75,0.00,,,0.00,Wunderground v.1.15,2013-10-20 23:08:00,
2013-10-20 18:13:00,43.0,36.6,29.79,NW,314,7.0,18.0,78,0.00,,,0.00,Wunderground v.1.15,2013-10-20 23:13:00,
2013-10-20 18:18:00,42.4,36.3,29.80,NW,317,13.0,19.0,79,0.00,,,0.00,Wunderground v.1.15,2013-10-20 23:18:00,
2013-10-20 18:24:00,42.0,36.3,29.80,NW,319,12.0,17.0,80,0.00,,,0.00,Wunderground v.1.15,2013-10-20 23:24:00,
2013-10-20 18:29:00,41.7,36.0,29.81,NW,319,10.0,17.0,80,0.00,,,0.00,Wunderground v.1.15,2013-10-20 23:29:00,
2013-10-20 18:34:00,41.4,35.4,29.81,NNW,332,13.0,24.0,79,0.00,,,0.00,Wunderground v.1.15,2013-10-20 23:34:00,
2013-10-20 18:39:00,41.1,34.8,29.82,NW,322,9.0,24.0,78,0.00,,,0.00,Wunderground v.1.15,2013-10-20 23:39:00,
2013-10-20 18:44:00,40.9,34.2,29.82,NW,324,16.0,16.0,77,0.00,,,0.00,Wunderground v.1.15,2013-10-20 23:44:00,
2013-10-20 18:49:00,40.7,34.0,29.83,NNW,338,7.0,18.0,77,0.00,,,0.00,Wunderground v.1.15,2013-10-20 23:49:00,
2013-10-20 18:54:00,40.5,33.9,29.83,WNW,303,10.0,18.0,77,0.00,,,0.00,Wunderground v.1.15,2013-10-20 23:54:00,
2013-10-20 18:59:00,40.2,33.6,29.84,NNW,331,6.0,18.0,77,0.00,,,0.00,Wunderground v.1.15,2013-10-20 23:59:00,
2013-10-20 19:04:00,40.0,33.4,29.84,NW,326,9.0,11.0,77,0.00,,,0.00,Wunderground v.1.15,2013-10-21 00:04:00,
2013-10-20 19:09:00,39.9,33.3,29.85,NW,319,16.0,17.0,77,0.00,,,0.00,Wunderground v.1.15,2013-10-21 00:09:00,
2013-10-20 19:14:00,39.7,33.1,29.85,NW,326,6.0,14.0,77,0.00,,,0.00,Wunderground v.1.15,2013-10-21 00:14:00,
2013-10-20 19:19:00,39.6,33.0,29.85,NW,325,12.0,17.0,77,0.00,,,0.00,Wunderground v.1.15,2013-10-21 00:19:00,
2013-10-20 19:24:00,39.5,32.9,29.86,NW,324,9.0,19.0,77,0.00,,,0.00,Wunderground v.1.15,2013-10-21 00:24:00,
2013-10-20 19:29:00,39.4,32.8,29.86,NW,326,14.0,19.0,77,0.00,,,0.00,Wunderground v.1.15,2013-10-21 00:29:00,
2013-10-20 19:34:00,39.3,32.7,29.86,NW,326,6.0,17.0,77,0.00,,,0.00,Wunderground v.1.15,2013-10-21 00:34:00,
2013-10-20 19:39:00,39.2,32.6,29.86,North,355,8.0,17.0,77,0.00,,,0.00,Wunderground v.1.15,2013-10-21 00:39:00,
2013-10-20 19:44:00,39.0,32.4,29.87,NNW,332,11.0,18.0,77,0.00,,,0.00,Wunderground v.1.15,2013-10-21 00:44:00,
2013-10-20 19:49:00,38.9,32.3,29.87,NW,319,7.0,18.0,77,0.00,,,0.00,Wunderground v.1.15,2013-10-21 00:49:00,
2013-10-20 19:54:00,38.8,32.2,29.88,NNW,342,9.0,18.0,77,0.00,,,0.00,Wunderground v.1.15,2013-10-21 00:54:00,
2013-10-20 19:59:00,38.8,32.2,29.88,NW,323,10.0,18.0,77,0.00,,,0.00,Wunderground v.1.15,2013-10-21 00:59:00,
2013-10-20 20:04:00,38.6,32.0,29.88,NW,313,8.0,16.0,77,0.00,,,0.00,Wunderground v.1.15,2013-10-21 01:04:00,
2013-10-20 20:09:00,38.6,32.0,29.89,NW,307,9.0,18.0,77,0.00,,,0.00,Wunderground v.1.15,2013-10-21 01:09:00,
2013-10-20 20:14:00,38.4,32.1,29.89,NW,317,16.0,16.0,78,0.00,,,0.00,Wunderground v.1.15,2013-10-21 01:14:00,
2013-10-20 20:19:00,38.2,32.3,29.89,NW,323,7.0,16.0,79,0.00,,,0.00,Wunderground v.1.15,2013-10-21 01:19:00,
2013-10-20 20:25:00,37.9,32.3,29.89,NW,318,6.0,15.0,80,0.00,,,0.00,Wunderground v.1.15,2013-10-21 01:25:00,
2013-10-20 20:30:00,37.7,32.4,29.89,NW,325,9.0,15.0,81,0.00,,,0.00,Wunderground v.1.15,2013-10-21 01:30:00,
2013-10-20 20:35:00,37.5,32.5,29.90,NW,314,8.0,10.0,82,0.00,,,0.00,Wunderground v.1.15,2013-10-21 01:35:00,
2013-10-20 20:40:00,37.5,32.5,29.90,NW,321,7.0,7.0,82,0.00,,,0.00,Wunderground v.1.15,2013-10-21 01:40:00,
2013-10-20 20:45:00,37.6,32.6,29.90,NW,319,6.0,8.0,82,0.00,,,0.00,Wunderground v.1.15,2013-10-21 01:45:00,
2013-10-20 20:50:00,37.6,32.3,29.90,NW,315,7.0,11.0,81,0.00,,,0.00,Wunderground v.1.15,2013-10-21 01:50:00,
2013-10-20 20:55:00,37.6,32.3,29.90,NW,306,10.0,10.0,81,0.00,,,0.00,Wunderground v.1.15,2013-10-21 01:55:00,
2013-10-20 21:00:00,37.6,32.3,29.91,WNW,303,10.0,10.0,81,0.00,,,0.00,Wunderground v.1.15,2013-10-21 02:00:00,
2013-10-20 21:05:00,37.4,32.1,29.91,NW,314,6.0,12.0,81,0.00,,,0.00,Wunderground v.1.15,2013-10-21 02:05:00,
2013-10-20 21:10:00,37.1,32.1,29.91,NW,322,5.0,7.0,82,0.00,,,0.00,Wunderground v.1.15,2013-10-21 02:10:00,
2013-10-20 21:15:00,36.9,32.2,29.91,NW,316,5.0,10.0,83,0.00,,,0.00,Wunderground v.1.15,2013-10-21 02:15:00,
2013-10-20 21:20:00,36.6,32.2,29.91,NW,311,8.0,8.0,84,0.00,,,0.00,Wunderground v.1.15,2013-10-21 02:20:00,
2013-10-20 21:25:00,36.7,32.3,29.91,NW,314,8.0,12.0,84,0.00,,,0.00,Wunderground v.1.15,2013-10-21 02:25:00,
2013-10-20 21:30:00,36.8,32.4,29.91,NW,311,6.0,8.0,84,0.00,,,0.00,Wunderground v.1.15,2013-10-21 02:30:00,
2013-10-20 21:35:00,36.8,32.4,29.92,NW,307,6.0,11.0,84,0.00,,,0.00,Wunderground v.1.15,2013-10-21 02:35:00,
2013-10-20 21:40:00,36.8,32.4,29.91,NW,320,6.0,8.0,84,0.00,,,0.00,Wunderground v.1.15,2013-10-21 02:40:00,
2013-10-20 21:45:00,36.8,32.4,29.92,NW,318,7.0,10.0,84,0.00,,,0.00,Wunderground v.1.15,2013-10-21 02:45:00,
2013-10-20 21:50:00,36.8,32.4,29.92,NW,321,9.0,9.0,84,0.00,,,0.00,Wunderground v.1.15,2013-10-21 02:50:00,
2013-10-20 21:55:00,36.8,32.1,29.92,NW,320,8.0,14.0,83,0.00,,,0.00,Wunderground v.1.15,2013-10-21 02:55:00,
2013-10-20 22:00:00,37.0,32.6,29.92,NW,314,9.0,12.0,84,0.00,,,0.00,Wunderground v.1.15,2013-10-21 03:00:00,
2013-10-20 22:05:00,36.8,32.4,29.92,NW,315,8.0,14.0,84,0.00,,,0.00,Wunderground v.1.15,2013-10-21 03:05:00,
2013-10-20 22:10:00,36.6,32.2,29.92,NW,324,7.0,10.0,84,0.00,,,0.00,Wunderground v.1.15,2013-10-21 03:10:00,
2013-10-20 22:15:00,36.6,32.5,29.92,NW,323,6.0,10.0,85,0.00,,,0.00,Wunderground v.1.15,2013-10-21 03:15:00,
2013-10-20 22:20:00,36.5,32.4,29.92,NW,314,5.0,7.0,85,0.00,,,0.00,Wunderground v.1.15,2013-10-21 03:20:00,
2013-10-20 22:25:00,36.6,32.5,29.92,NW,317,8.0,14.0,85,0.00,,,0.00,Wunderground v.1.15,2013-10-21 03:25:00,
2013-10-20 22:30:00,36.7,32.6,29.93,NW,315,7.0,9.0,85,0.00,,,0.00,Wunderground v.1.15,2013-10-21 03:30:00,
2013-10-20 22:35:00,36.7,32.6,29.93,NW,317,10.0,13.0,85,0.00,,,0.00,Wunderground v.1.15,2013-10-21 03:35:00,
2013-10-20 22:40:00,36.7,32.6,29.93,NW,325,6.0,8.0,85,0.00,,,0.00,Wunderground v.1.15,2013-10-21 03:40:00,
2013-10-20 22:45:00,36.7,32.3,29.93,NW,313,4.0,13.0,84,0.00,,,0.00,Wunderground v.1.15,2013-10-21 03:45:00,
2013-10-20 22:50:00,36.7,32.3,29.93,NW,319,7.0,7.0,84,0.00,,,0.00,Wunderground v.1.15,2013-10-21 03:50:00,
2013-10-20 22:56:00,36.7,32.3,29.93,NW,313,5.0,10.0,84,0.00,,,0.00,Wunderground v.1.15,2013-10-21 03:56:00,
2013-10-20 23:01:00,36.7,32.3,29.93,NW,304,5.0,6.0,84,0.00,,,0.00,Wunderground v.1.15,2013-10-21 04:01:00,
2013-10-20 23:02:00,36.7,32.3,29.93,NW,309,6.0,9.0,84,0.00,,,0.00,Wunderground v.1.15,2013-10-21 04:02:00,
2013-10-20 23:07:00,36.7,32.3,29.93,NW,325,7.0,12.0,84,0.00,,,0.00,Wunderground v.1.15,2013-10-21 04:07:00,
2013-10-20 23:12:00,36.7,32.0,29.93,NW,321,8.0,11.0,83,0.00,,,0.00,Wunderground v.1.15,2013-10-21 04:12:00,
2013-10-20 23:17:00,36.6,31.9,29.93,NW,319,10.0,13.0,83,0.00,,,0.00,Wunderground v.1.15,2013-10-21 04:17:00,
2013-10-20 23:22:00,36.5,31.8,29.93,NW,310,9.0,13.0,83,0.00,,,0.00,Wunderground v.1.15,2013-10-21 04:22:00,
2013-10-20 23:27:00,36.4,31.7,29.94,NW,318,11.0,13.0,83,0.00,,,0.00,Wunderground v.1.15,2013-10-21 04:27:00,
2013-10-20 23:32:00,36.1,31.1,29.94,North,11,8.0,18.0,82,0.00,,,0.00,Wunderground v.1.15,2013-10-21 04:32:00,
2013-10-20 23:37:00,34.8,29.3,29.95,NNW,343,2.0,18.0,80,0.00,,,0.00,Wunderground v.1.15,2013-10-21 04:37:00,
2013-10-20 23:42:00,34.2,28.7,29.95,NW,322,5.0,10.0,80,0.00,,,0.00,Wunderground v.1.15,2013-10-21 04:42:00,
2013-10-20 23:47:00,34.3,29.1,29.95,NW,317,5.0,12.0,81,0.00,,,0.00,Wunderground v.1.15,2013-10-21 04:47:00,
2013-10-20 23:52:00,34.4,29.2,29.95,NW,325,0.0,13.0,81,0.00,,,0.00,Wunderground v.1.15,2013-10-21 04:52:00,
2013-10-20 23:57:00,34.4,29.2,29.94,NNW,336,4.0,13.0,81,0.00,,,0.00,Wunderground v.1.15,2013-10-21 04:57:00,